Simultaneous Nadir Overpasses (SNOs) Predictions

Prediction of SNOs between GOES-17 and TERRA Satellite Orbit:

Table of predicted SNOs for the next 14.0 days since TLE Epoch: 2/25/2023
Index Date Time (GOES-17) GOES-17 Lat,Lon TERRA Lat,Lon Distance(km) Time Diff (sec)
1 02/25/2023 17:11:47 -0.01,-104.71 0.22,-105.75 118.54 80
2 02/27/2023 16:58:30 -0.01,-104.71 -0.60,-101.90 319.80 80
3 02/28/2023 05:18:56 0.01,-104.69 -0.47,-106.86 247.29 80
4 03/02/2023 05:00:19 0.02,-104.69 0.38,-103.01 191.22 80
5 03/02/2023 17:20:36 -0.02,-104.71 0.64,-107.94 366.16 80
6 03/04/2023 17:07:18 -0.02,-104.72 -0.17,-104.08 72.88 80
7 03/05/2023 05:27:43 0.02,-104.70 -0.88,-109.04 493.75 80
8 03/07/2023 05:11:45 0.02,-104.70 -0.09,-105.18 54.17 80
9 03/09/2023 04:53:06 0.01,-104.71 0.72,-101.32 385.73 80
10 03/09/2023 17:13:22 -0.01,-104.73 0.30,-106.25 171.58 80
